Location: Poughquag
(41.6090°N, 73.6820°W)
Time: 12:51:06
(UTC-04:00)

A-11 Canister half - Pass Details

Date: 29 May 2020
Orbit: 1527 x 1682 km, 47.3° (Epoch: 06 July)

Event Time Altitude Azimuth Distance (km) Brightness Sun altitude
Rises 13:21:06 0° 293° (WNW) 4,721 11.6 69.3°
Reaches altitude 10° 13:24:08 10° 294° (WNW) 3,752 11.2 69.1°
Maximum altitude 13:33:43 83° 24° (NNE) 1,610 10.5 68.3°
Drops below altitude 10° 13:43:37 10° 113° (ESE) 3,869 11.2 67.4°
Sets 13:46:47 0° 114° (ESE) 4,872 11.6 67.1°
